EW7772 Weather Reports


time (UTC)temp
F
wind
direction
speed
knots
gust
knots
rain 1hr
in
rain 24hr
in
rain mn
in
humidity
%
barometer
mb
20260905224521 55 279 0.0 0.0 0.00 0.49 0.00 85 1025.9
20260905223019 55 279 0.0 0.0 0.00 0.49 0.00 84 1025.9
20260905221516 55 279 0.0 0.0 0.00 0.49 0.00 83 1025.7
20260905220014 55 279 0.0 0.9 0.00 0.49 0.00 82 1025.5
20260905214512 56 279 0.0 0.0 0.00 0.49 0.49 81 1025.3
20260905213008 57 279 0.0 0.0 0.00 0.49 0.49 81 1025.1
20260905211507 57 279 0.0 0.0 0.00 0.49 0.49 80 1024.9
20260905210005 58 279 0.0 0.0 0.00 0.49 0.49 78 1024.8
20260905204503 58 279 0.0 0.0 0.00 0.49 0.49 77 1024.7
20260905203003 59 279 0.0 0.0 0.00 0.49 0.49 76 1024.6
20260905201502 60 279 0.0 0.0 0.00 0.49 0.49 75 1024.5
20260905200107 60 279 0.0 0.0 0.00 0.49 0.49 74 1024.3
20260905194558 61 279 0.0 0.0 0.00 0.49 0.49 71 1024.1
20260905193057 62 279 0.0 0.0 0.00 0.49 0.49 70 1024.2
20260905191556 62 279 0.0 0.0 0.00 0.49 0.49 68 1024.0
20260905190055 64 279 0.0 0.0 0.00 0.49 0.49 65 1023.8
20260905184554 65 279 0.0 0.0 0.00 0.49 0.49 61 1023.7
20260905183051 67 279 0.0 0.0 0.00 0.49 0.49 58 1023.4
20260905181549 68 279 0.0 0.0 0.00 0.49 0.49 55 1023.3
20260905180048 70 279 0.0 0.0 0.00 0.49 0.49 52 1023.1
20260905174548 70 279 0.0 3.5 0.00 0.49 0.49 49 1022.9
20260905173044 71 279 0.0 1.7 0.00 0.49 0.49 49 1022.7
20260905171555 72 278 0.0 2.6 0.00 0.49 0.49 48 1022.5
20260905170040 72 266 0.0 3.5 0.00 0.49 0.49 47 1022.4
20260905164545 72 246 0.0 1.7 0.00 0.49 0.49 48 1022.3
20260905163048 73 275 0.0 1.7 0.00 0.49 0.49 48 1022.0
20260905161537 74 236 0.0 3.5 0.00 0.49 0.49 45 1022.0
20260905160036 74 284 0.9 3.5 0.00 0.49 0.49 46 1021.9
20260905154544 75 244 0.0 5.2 0.00 0.49 0.49 47 1021.8
20260905153035 76 259 0.0 3.5 0.00 0.49 0.49 45 1021.7
20260905151535 78 273 0.0 5.2 0.00 0.49 0.49 43 1021.6
20260905150041 77 258 0.9 5.2 0.00 0.49 0.49 44 1021.5
20260905144537 78 144 0.9 6.1 0.00 0.49 0.49 45 1021.4
20260905143033 78 284 0.9 5.2 0.00 0.49 0.49 45 1021.5
20260905141534 78 286 0.0 4.3 0.00 0.49 0.49 47 1021.5
20260905140029 78 263 0.0 5.2 0.00 0.49 0.49 49 1021.5
20260905134527 77 234 0.9 3.5 0.00 0.49 0.49 49 1021.6
20260905133024 76 273 0.0 4.3 0.00 0.49 0.49 53 1021.5
20260905131533 75 14 0.0 4.3 0.00 0.49 0.49 54 1021.6
20260905130021 75 284 0.0 3.5 0.00 0.49 0.49 54 1021.7
20260905124521 75 241 0.0 2.6 0.00 0.49 0.49 58 1021.8
20260905123029 75 290 0.0 1.7 0.00 0.49 0.49 58 1021.6
20260905121517 74 259 0.0 3.5 0.00 0.49 0.49 58 1021.7
20260905120022 74 211 0.9 4.3 0.00 0.49 0.49 57 1021.9
20260905114517 73 320 0.0 3.5 0.00 0.49 0.49 62 1021.8
20260905113011 71 287 0.0 3.5 0.00 0.49 0.49 63 1021.9
20260905111513 72 303 0.0 4.3 0.00 0.49 0.49 64 1021.8
20260905110008 72 267 0.9 4.3 0.00 0.49 0.49 65 1021.8
20260905104515 71 263 0.9 5.2 0.00 0.49 0.49 68 1021.9
20260905103003 69 287 0.9 5.2 0.00 0.49 0.49 69 1022.0
20260905101501 69 254 0.0 2.6 0.00 0.49 0.49 72 1021.9
20260905100104 68 286 0.0 2.6 0.00 0.49 0.49 74 1021.9
20260905094716 68 319 0.0 2.6 0.00 0.49 0.49 78 1021.9
20260905093116 66 287 0.0 3.5 0.00 0.49 0.49 81 1021.8
20260905091602 66 277 0.0 3.5 0.00 0.49 0.49 80 1021.8
20260905090055 66 271 0.0 1.7 0.00 0.49 0.49 81 1021.6
20260905084604 65 284 0.0 2.6 0.00 0.49 0.49 81 1021.3
20260905083053 64 249 0.0 2.6 0.00 0.49 0.49 85 1021.3
20260905081553 63 234 0.0 0.9 0.00 0.49 0.49 90 1021.1
20260905080105 62 234 0.0 0.9 0.00 0.49 0.49 92 1021.0
20260905074601 61 221 0.0 0.9 0.00 0.49 0.49 94 1021.2
20260905073105 60 221 0.0 0.0 0.00 0.49 0.49 94 1020.9
20260905071552 60 221 0.0 0.0 0.00 0.49 0.49 94 1020.8
20260905070048 59 221 0.0 0.0 0.00 0.49 0.49 95 1020.7
20260905064548 59 221 0.0 0.0 0.00 0.49 0.49 95 1020.9
20260905063047 58 221 0.0 0.0 0.00 0.49 0.49 94 1020.7
20260905061559 58 221 0.0 0.0 0.00 0.49 0.49 95 1020.3
20260905060059 58 221 0.0 0.9 0.00 0.49 0.49 95 1020.0
20260905054554 58 221 0.0 0.9 0.00 0.49 0.49 95 1019.8
20260905053042 58 221 0.0 0.0 0.00 0.49 0.49 95 1019.7
20260905051552 57 221 0.0 0.0 0.01 0.49 0.49 94 1019.6
20260905050040 57 221 0.0 1.7 0.03 0.49 0.49 94 1019.3
20260905044543 57 221 0.0 0.9 0.08 0.49 0.49 93 1019.3
20260905043040 56 221 0.0 1.7 0.13 0.49 0.49 92 1019.2
20260905041540 57 227 0.0 0.9 0.16 0.48 0.48 92 1019.3
20260905040035 57 227 0.0 0.0 0.20 0.46 0.46 90 1019.6
20260905034535 58 227 0.0 0.0 0.27 0.41 0.41 90 1019.5
20260905033030 58 227 0.0 0.0 0.31 0.35 0.35 89 1019.6
20260905031537 59 227 0.0 1.7 0.32 0.32 0.32 88 1019.5
20260905030025 61 157 0.0 1.7 0.24 0.24 0.24 89 1019.7
20260905024539 63 217 0.0 4.3 0.14 0.14 0.14 86 1019.1
20260905023021 66 246 0.0 2.6 0.03 0.03 0.03 82 1018.9
20260905021514 68 309 0.0 2.6 0.00 0.00 0.00 75 1017.7
20260905020011 68 275 0.0 1.7 0.00 0.00 0.00 74 1017.4
20260905014511 69 276 0.0 0.0 0.00 0.00 0.00 71 1017.3
20260905013009 69 276 0.0 2.6 0.00 0.00 0.00 72 1017.3
20260905011509 69 311 0.0 0.9 0.00 0.00 0.00 73 1017.2
20260905010005 69 312 0.0 0.9 0.00 0.00 0.00 74 1016.9
20260905004507 68 311 0.0 0.9 0.00 0.00 0.00 75 1016.8
20260905003100 68 323 0.0 0.0 0.00 0.00 0.00 75 1016.4
20260905001559 67 323 0.0 0.0 0.00 0.00 0.00 75 1016.1
20260905000058 67 323 0.0 0.0 0.00 0.00 0.00 76 1016.0
20260904234557 68 323 0.0 0.0 0.00 0.00 0.00 76 1016.1
20260904233056 68 323 0.0 0.0 0.00 0.00 0.00 76 1016.0
20260904231555 68 323 0.0 0.0 0.00 0.00 0.00 76 1015.8
20260904230106 68 323 0.0 0.0 0.00 0.00 0.00 75 1015.7